Meteo pe oră la 3 internacional

Astăzi, 14 Iunie, Luni

Timp Temperatura Precipitaţii Vânt Presiune Umiditate
00:00 +26°C° 0 mm 6 m/s 752 mmHg 15%
01:00 +24°C° 0 mm 6 m/s 752 mmHg 16%
02:00 +23°C° 0 mm 6 m/s 752 mmHg 18%
03:00 +23°C° 0 mm 6 m/s 752 mmHg 20%
04:00 +22°C° 0 mm 6 m/s 752 mmHg 22%
05:00 +23°C° 0 mm 6 m/s 753 mmHg 22%
06:00 +24°C° 0 mm 6 m/s 753 mmHg 23%
07:00 +26°C° 0 mm 7 m/s 753 mmHg 24%
08:00 +28°C° 0 mm 7 m/s 753 mmHg 21%
09:00 +29°C° 0 mm 7 m/s 753 mmHg 19%
10:00 +30°C° 0 mm 7 m/s 753 mmHg 17%
11:00 +32°C° 0 mm 7 m/s 753 mmHg 17%
12:00 +33°C° 0 mm 7 m/s 752 mmHg 17%
13:00 +34°C° 0 mm 7 m/s 752 mmHg 16%
14:00 +34°C° 0 mm 7 m/s 752 mmHg 16%
15:00 +34°C° 0 mm 6 m/s 752 mmHg 15%
16:00 +34°C° 0 mm 6 m/s 752 mmHg 15%
17:00 +33°C° 0 mm 5 m/s 752 mmHg 15%
18:00 +33°C° 0 mm 5 m/s 751 mmHg 16%
19:00 +32°C° 0 mm 4 m/s 751 mmHg 17%
20:00 +30°C° 0 mm 4 m/s 751 mmHg 17%
21:00 +29°C° 0 mm 4 m/s 751 mmHg 18%
22:00 +28°C° 0 mm 4 m/s 751 mmHg 19%
23:00 +27°C° 0 mm 4 m/s 751 mmHg 20%

Mâine, 15 Iunie, Marţi

Timp Temperatura Precipitaţii Vânt Presiune Umiditate
00:00 +26°C° 0 mm 4 m/s 751 mmHg 22%
01:00 +26°C° 0 mm 4 m/s 751 mmHg 23%
02:00 +25°C° 0 mm 4 m/s 751 mmHg 24%
03:00 +23°C° 0 mm 4 m/s 751 mmHg 25%
04:00 +23°C° 0 mm 4 m/s 752 mmHg 27%
05:00 +25°C° 0 mm 4 m/s 752 mmHg 24%
06:00 +27°C° 0 mm 4 m/s 752 mmHg 21%
07:00 +29°C° 0 mm 5 m/s 752 mmHg 18%
08:00 +30°C° 0 mm 5 m/s 752 mmHg 17%
09:00 +33°C° 0 mm 5 m/s 752 mmHg 16%
10:00 +34°C° 0 mm 5 m/s 752 mmHg 15%
11:00 +35°C° 0 mm 5 m/s 751 mmHg 15%
12:00 +35°C° 0 mm 5 m/s 751 mmHg 16%
13:00 +36°C° 0 mm 5 m/s 750 mmHg 16%
14:00 +36°C° 0 mm 5 m/s 750 mmHg 16%
15:00 +36°C° 0 mm 5 m/s 750 mmHg 16%
16:00 +37°C° 0 mm 5 m/s 750 mmHg 16%
17:00 +36°C° 0 mm 4 m/s 749 mmHg 17%
18:00 +35°C° 0 mm 4 m/s 749 mmHg 18%
19:00 +34°C° 0 mm 3 m/s 749 mmHg 20%
20:00 +33°C° 0 mm 3 m/s 749 mmHg 21%
21:00 +31°C° 0 mm 3 m/s 749 mmHg 22%
22:00 +30°C° 0 mm 3 m/s 749 mmHg 22%
23:00 +29°C° 0 mm 3 m/s 749 mmHg 23%

Poimâine, 16 Iunie, Miercuri

Timp Temperatura Precipitaţii Vânt Presiune Umiditate
00:00 +29°C° 0 mm 4 m/s 749 mmHg 24%
01:00 +28°C° 0 mm 4 m/s 749 mmHg 25%
02:00 +27°C° 0 mm 4 m/s 749 mmHg 26%
03:00 +27°C° 0 mm 4 m/s 749 mmHg 27%
04:00 +26°C° 0 mm 4 m/s 749 mmHg 28%
05:00 +27°C° 0 mm 4 m/s 750 mmHg 25%
06:00 +29°C° 0 mm 5 m/s 750 mmHg 23%
07:00 +30°C° 0 mm 5 m/s 750 mmHg 21%
08:00 +33°C° 0 mm 5 m/s 750 mmHg 19%
09:00 +34°C° 0 mm 5 m/s 750 mmHg 18%
10:00 +36°C° 0 mm 5 m/s 750 mmHg 16%
11:00 +36°C° 0 mm 4 m/s 749 mmHg 15%
12:00 +37°C° 0 mm 4 m/s 749 mmHg 14%
13:00 +37°C° 0 mm 4 m/s 749 mmHg 13%
14:00 +37°C° 0 mm 4 m/s 749 mmHg 13%
15:00 +38°C° 0 mm 4 m/s 748 mmHg 12%
16:00 +38°C° 0 mm 4 m/s 748 mmHg 12%
17:00 +37°C° 0 mm 3 m/s 748 mmHg 13%
18:00 +36°C° 0 mm 3 m/s 748 mmHg 14%
19:00 +35°C° 0 mm 2 m/s 748 mmHg 15%
20:00 +32°C° 0 mm 2 m/s 748 mmHg 17%
21:00 +31°C° 0 mm 1 m/s 749 mmHg 18%
22:00 +30°C° 0 mm 1 m/s 749 mmHg 19%
23:00 +29°C° 0 mm 2 m/s 748 mmHg 19%

17 Iunie, Joi

Timp Temperatura Precipitaţii Vânt Presiune Umiditate
00:00 +29°C° 0 mm 3 m/s 748 mmHg 19%
01:00 +29°C° 0 mm 4 m/s 748 mmHg 19%
02:00 +28°C° 0 mm 4 m/s 748 mmHg 20%
03:00 +27°C° 0 mm 4 m/s 749 mmHg 20%
04:00 +27°C° 0 mm 4 m/s 749 mmHg 21%
05:00 +28°C° 0 mm 4 m/s 749 mmHg 20%
06:00 +30°C° 0 mm 4 m/s 749 mmHg 18%
07:00 +33°C° 0 mm 4 m/s 749 mmHg 17%
08:00 +34°C° 0 mm 5 m/s 749 mmHg 16%
09:00 +35°C° 0 mm 5 m/s 749 mmHg 14%
10:00 +37°C° 0 mm 5 m/s 749 mmHg 13%
11:00 +37°C° 0 mm 5 m/s 748 mmHg 12%
12:00 +38°C° 0 mm 4 m/s 748 mmHg 11%
13:00 +38°C° 0 mm 4 m/s 748 mmHg 11%
14:00 +40°C° 0 mm 4 m/s 747 mmHg 11%
15:00 +39°C° 0 mm 3 m/s 747 mmHg 11%
16:00 +39°C° 0 mm 3 m/s 747 mmHg 10%
17:00 +38°C° 0 mm 3 m/s 747 mmHg 12%
18:00 +37°C° 0 mm 2 m/s 747 mmHg 14%
19:00 +34°C° 0 mm 1 m/s 747 mmHg 16%
20:00 +34°C° 0 mm 2 m/s 747 mmHg 16%
21:00 +32°C° 0 mm 2 m/s 747 mmHg 16%
22:00 +33°C° 0 mm 3 m/s 747 mmHg 15%
23:00 +31°C° 0 mm 3 m/s 746 mmHg 16%

18 Iunie, Vineri

Timp Temperatura Precipitaţii Vânt Presiune Umiditate
00:00 +30°C° 0 mm 3 m/s 746 mmHg 16%
01:00 +30°C° 0 mm 3 m/s 746 mmHg 17%
02:00 +29°C° 0 mm 2 m/s 746 mmHg 17%
03:00 +28°C° 0 mm 2 m/s 746 mmHg 18%
04:00 +28°C° 0 mm 2 m/s 746 mmHg 18%
05:00 +30°C° 0 mm 2 m/s 746 mmHg 16%
06:00 +32°C° 0 mm 2 m/s 746 mmHg 15%
07:00 +35°C° 0 mm 3 m/s 746 mmHg 13%
08:00 +37°C° 0 mm 3 m/s 746 mmHg 12%
09:00 +38°C° 0 mm 4 m/s 746 mmHg 12%
10:00 +40°C° 0 mm 4 m/s 746 mmHg 11%
11:00 +41°C° 0 mm 5 m/s 745 mmHg 11%
12:00 +42°C° 0 mm 6 m/s 745 mmHg 11%
13:00 +43°C° 0 mm 7 m/s 744 mmHg 10%
14:00 +43°C° 0 mm 8 m/s 744 mmHg 11%
15:00 +43°C° 0 mm 9 m/s 744 mmHg 11%
16:00 +43°C° 0 mm 10 m/s 743 mmHg 11%
17:00 +42°C° 0 mm 9 m/s 743 mmHg 14%
18:00 +39°C° 0 mm 9 m/s 743 mmHg 17%
19:00 +38°C° 0 mm 9 m/s 743 mmHg 20%
20:00 +35°C° 0 mm 9 m/s 744 mmHg 23%
21:00 +34°C° 0 mm 9 m/s 744 mmHg 25%
22:00 +33°C° 0 mm 9 m/s 744 mmHg 28%
23:00 +29°C° 0 mm 9 m/s 745 mmHg 36%

19 Iunie, Sâmbătă

Timp Temperatura Precipitaţii Vânt Presiune Umiditate
00:00 +27°C° 0 mm 9 m/s 745 mmHg 44%
01:00 +24°C° 0 mm 9 m/s 746 mmHg 52%
02:00 +22°C° 0 mm 8 m/s 746 mmHg 54%
03:00 +21°C° 0 mm 8 m/s 746 mmHg 55%
04:00 +20°C° 0 mm 8 m/s 747 mmHg 56%
05:00 +19°C° 0 mm 9 m/s 747 mmHg 52%
06:00 +19°C° 0 mm 10 m/s 748 mmHg 48%
07:00 +19°C° 0 mm 11 m/s 748 mmHg 43%
08:00 +21°C° 0 mm 11 m/s 749 mmHg 38%
09:00 +22°C° 0 mm 10 m/s 749 mmHg 32%
10:00 +24°C° 0 mm 10 m/s 749 mmHg 26%
11:00 +24°C° 0 mm 10 m/s 749 mmHg 24%
12:00 +26°C° 0 mm 11 m/s 749 mmHg 22%
13:00 +26°C° 0 mm 11 m/s 749 mmHg 20%
14:00 +26°C° 0 mm 11 m/s 750 mmHg 19%
15:00 +26°C° 0 mm 11 m/s 750 mmHg 17%
16:00 +26°C° 0 mm 11 m/s 750 mmHg 16%
17:00 +26°C° 0 mm 10 m/s 750 mmHg 16%
18:00 +24°C° 0 mm 9 m/s 750 mmHg 16%
19:00 +23°C° 0 mm 8 m/s 750 mmHg 17%
20:00 +23°C° 0 mm 7 m/s 751 mmHg 18%
21:00 +22°C° 0 mm 5 m/s 751 mmHg 20%
22:00 +21°C° 0 mm 3 m/s 751 mmHg 21%
23:00 +21°C° 0 mm 4 m/s 751 mmHg 24%
Arată mai mult

Formular de consimțământ

Meteoprog și furnizorii noștri de servicii pot stoca și accesa date personale, precum cookies, identificatori de dispozitiv sau alte tehnologii similare pe dispozitivul dumneavoastră și procesa astfel de date pentru a personaliza conținutul și reclamele, dar și pentru a oferi caracteristici de social media și pentru a analiza traficul.

  • Stocarea și/sau accesarea informațiilor pe dispozitivul dumneavoastră

    Cookies, identificatori de dispozitiv sau alte informații pot fi stocate sau accesate pe dispozitiv în scopurile indicate mai sus.

  • Reclame și conținut personalizat, evaluarea reclamelor și a conținutului, informații despre audiențe și dezvoltarea produselor

    Reclamele și conținutul pot fi personalizate pe baza unui profil. Pot fi adăugate date suplimentare pentru a personaliza mai bine reclamele și conținutul. Performanța reclamelor și conținutului poate fi măsurată. Pot fi obținute informații despre utilizatorii care au văzut reclamele și conținutul. Aceste date pot fi utilizate pentru a dezvolta sau îmbunătăți experiența utilizatorilor, sistemele și software-ul.

Dând clic pe ‘Sunt de acord’, permiteți utilizarea cookie-urilor menționate, a identificatorilor de dispozitiv, balizelor web sau altor tehnologii similare. Setările pot fi modificate din browser-ul dispozitivului dumneavoastră.

În anumite scopuri, interesele legitime pot prima asupra consimțământului. Puteți citi mai multe informații în acest sens în Politica privind Confidențialitatea Datelor și Cookie.